Location: Unspecified
(43.4680°N, 87.1740°E)
Time: 03:33:39
(UTC+00:00)

Resurs 1-3 - Pass Details

Date: 17 April 2021
Orbit: 630 x 632 km, 97.9° (Epoch: 17 May)

Event Time Altitude Azimuth Distance (km) Brightness Sun altitude
Exits shadow 14:10:11 15° 153° (SSE) 1,727 5.4 -13.1°
Maximum altitude 14:13:49 64° 74° (ENE) 704 3.6 -13.7°
Drops below altitude 10° 14:18:10 10° 353° (N) 2,023 6.7 -14.4°
Sets 14:20:23 0° 351° (N) 2,935 7.6 -14.7°
